Flag for Canada Weather past 2 weeks in Calgary, Alberta, Canada

27 °F


Feels Like: 27 °F
Forecast: 18 / 34 °F
Wind: No wind

Location: Calgary International

Current Time: Nov 29, 2015 at 7:45:08 PM

Latest Report: Nov 29, 2015 at 7:00 PM

Visibility: 15 mi

Pressure: 30.21 "Hg (26.41 "Hg at 1063m altitude)

Humidity: 54%

Dew point: 12 °F

Location of CalgaryLocation

Historic Weather in Calgary — Graph


Calgary temperature yesterday

Maximum temperature yesterday: 43 °F (at 3:00 PM)
Minimum temperature yesterday: 12 °F (at 4:00 AM)
Average temperature yesterday: 26 °F

Past Weeks' High & Low Weather Summary

High57 °F (Nov 15, 2:00 PM)93% (Nov 15, 5:00 AM)30.60 "Hg (Nov 15, 5:00 AM)
Low1 °F (Nov 25, 4:00 AM)25% (Nov 22, 10:00 AM)29.03 "Hg (Nov 17, 6:00 PM)
Average27 °F62%30.07 "Hg
* Reported Nov 14 6:00 PM — Nov 29 6:00 PM, Calgary, Weather by CustomWeather, © 2015

Note: Actual official high and low records may vary slightly from our data, if they occured in-between our weather recording intervals... More about our weather records


Calgary weather history for previous 24 hours

Time TempWeatherWind HumidityBarometerVisibility
6:00 PM
Sun, Nov 29
30 °FPassing clouds.No wind51%30.22 "Hg15 mi
5:00 PM36 °FPassing clouds.2 mph48%30.20 "Hg20 mi
4:00 PM41 °FPassing clouds.No wind36%30.18 "Hg20 mi
3:00 PM43 °FPassing clouds.No wind36%30.17 "Hg30 mi
2:00 PM41 °FPassing clouds.2 mph39%30.19 "Hg30 mi
1:00 PM39 °FPassing clouds.2 mph39%30.19 "Hg30 mi
12:00 PM36 °FPassing clouds.2 mph41%30.22 "Hg30 mi
11:00 AM30 °FPassing clouds.2 mph47%30.26 "Hg30 mi
10:00 AM21 °FPassing clouds.3 mph58%30.28 "Hg30 mi
9:00 AM18 °FPassing clouds.3 mph58%30.29 "Hg30 mi
8:00 AM23 °FPassing clouds.3 mph58%30.27 "Hg30 mi
7:00 AM21 °FPassing clouds.2 mph63%30.27 "Hg15 mi
6:00 AM18 °FPassing clouds.2 mph62%30.28 "Hg15 mi
5:00 AM21 °FPassing clouds.No wind63%30.26 "Hg15 mi
4:00 AM23 °FPassing clouds.2 mph58%30.24 "Hg15 mi
3:00 AM21 °FPassing clouds.2 mph58%30.25 "Hg15 mi
2:00 AM21 °FClear.2 mph63%30.25 "Hg15 mi
1:00 AM25 °FClear.3 mph54%30.27 "Hg15 mi
11:00 PM
Sat, Nov 28
23 °FClear.2 mph63%30.31 "Hg15 mi
10:00 PM25 °FPassing clouds.3 mph54%30.32 "Hg15 mi
9:00 PM21 °FPassing clouds.2 mph63%30.34 "Hg15 mi
8:00 PM27 °FClear.3 mph54%30.34 "Hg15 mi
7:00 PM28 °FClear.3 mph59%30.34 "Hg15 mi
Weather by CustomWeather, © 2015

See weather overviewHow to use our weather pages